Temperature
-9 -9 -8 -8 -8 -7 -7 -7 -6 -6 -5 -4 -2 0 2 4 6 8 9 10 10 10 11 11 11 12 12 13 13 13 14 14 14 14 14 14 14 14
-9 -9 -8 -8 -8 -7 -7 -7 -6 -6 -5 -4 -4 -2 0 3 5 6 8 9 9 10 10 11 11 12 12 12 13 13 13 13 14 14 14 14 14 14
-9 -9 -8 -8 -8 -7 -7 -6 -6 -5 -5 -4 -4 -3 -1 2 4 5 6 8 9 9 10 10 11 11 12 12 12 12 13 13 13 13 13 13 13 13
-9 -9 -8 -8 -8 -7 -7 -6 -6 -5 -5 -4 -3 -3 -1 0 2 3 5 6 8 8 9 10 11 11 11 12 12 12 12 13 13 13 12 12 12 12
-9 -9 -8 -8 -8 -8 -7 -6 -5 -5 -4 -3 -3 -2 -1 -0 1 2 3 5 7 8 9 9 10 11 11 12 12 12 12 12 13 13 13 12 12 12
-9 -9 -9 -9 -9 -8 -8 -7 -6 -4 -4 -3 -2 -2 -1 -0 0 1 2 4 6 7 8 9 10 11 11 12 12 12 12 12 12 13 13 12 12 11
-9 -9 -9 -9 -9 -9 -8 -8 -7 -5 -4 -3 -2 -1 -1 -0 0 1 2 3 5 6 8 9 10 10 11 11 12 12 12 12 12 12 12 12 12 11
-10 -9 -9 -9 -10 -9 -9 -8 -8 -7 -6 -4 -3 -2 -1 -1 0 1 1 2 4 6 7 8 9 10 10 11 12 12 12 12 12 12 11 11 11 10
-10 -10 -10 -10 -10 -10 -9 -9 -8 -8 -7 -6 -5 -4 -3 -2 -1 1 1 2 3 5 7 7 8 8 9 10 11 11 12 12 11 11 11 10 10 10
-11 -11 -11 -10 -10 -10 -10 -9 -9 -8 -8 -7 -6 -5 -4 -3 -2 -0 1 2 3 5 6 6 7 7 8 8 9 10 10 10 10 10 10 10 9 9
-11 -12 -11 -11 -11 -11 -10 -10 -9 -8 -8 -8 -7 -6 -5 -4 -2 -1 1 2 3 4 5 6 6 7 7 7 8 8 9 9 9 9 9 9 8 7
-12 -12 -12 -12 -12 -11 -11 -11 -11 -9 -8 -7 -7 -6 -5 -3 -3 -1 -0 1 3 4 5 5 6 6 6 6 6 7 8 8 8 8 8 7 6 5
-13 -13 -13 -13 -12 -12 -12 -12 -12 -10 -9 -9 -8 -7 -5 -4 -3 -2 -1 1 2 3 4 5 5 6 6 4 4 5 6 6 6 5 5 4 4 4
-14 -14 -14 -13 -13 -12 -12 -12 -11 -10 -10 -9 -9 -8 -7 -6 -4 -3 -2 -1 1 3 4 5 5 6 6 4 3 3 3 3 3 3 2 2 2 2
-14 -14 -14 -14 -13 -12 -13 -12 -11 -11 -11 -10 -10 -10 -9 -8 -6 -4 -2 -1 0 1 3 4 4 5 6 5 3 2 2 1 1 2 1 1 1 1
-13 -14 -14 -14 -13 -13 -13 -12 -12 -12 -12 -11 -11 -10 -9 -8 -6 -4 -3 -2 -0 0 1 2 3 3 4 5 4 2 2 1 1 1 1 1 0 1
-14 -13 -14 -14 -14 -14 -14 -13 -13 -13 -12 -12 -11 -11 -10 -9 -8 -7 -5 -2 -1 -1 -0 0 1 1 1 2 1 1 1 1 0 0 0 -0 -0 -0
-14 -14 -14 -15 -15 -15 -15 -14 -14 -14 -13 -13 -12 -11 -11 -10 -9 -8 -7 -5 -4 -3 -2 -1 -1 -0 -0 -1 -1 -0 1 0 -0 -0 -0 -0 -0 -0
-14 -14 -14 -15 -15 -15 -15 -15 -15 -14 -14 -13 -13 -12 -12 -11 -10 -9 -9 -8 -7 -6 -5 -3 -2 -1 -2 -4 -4 -2 -1 -0 -1 -1 -1 -0 0 -0
-14 -14 -14 -15 -15 -15 -15 -15 -15 -14 -14 -14 -13 -13 -12 -12 -11 -11 -10 -9 -8 -7 -6 -5 -4 -3 -2 -4 -5 -5 -2 -1 -1 -1 -1 -1 -1 -1
-14 -14 -14 -14 -14 -15 -15 -15 -15 -15 -14 -14 -14 -13 -13 -13 -12 -12 -11 -10 -9 -8 -8 -8 -7 -5 -4 -3 -4 -6 -5 -4 -3 -2 -2 -2 -1 -2
-14 -14 -14 -14 -14 -14 -14 -14 -14 -14 -14 -14 -14 -14 -13 -13 -13 -13 -12 -12 -11 -10 -10 -10 -9 -7 -6 -5 -6 -6 -6 -6 -5 -4 -4 -3 -3 -2
-13 -13 -14 -14 -14 -14 -14 -14 -14 -14 -14 -14 -14 -14 -14 -13 -13 -13 -13 -13 -12 -12 -11 -11 -10 -9 -8 -8 -8 -8 -8 -8 -7 -7 -6 -5 -4 -3
Wind_Speed
13 14 12 10 10 10 10 11 12 16 15 9 5 5 6 8 13 15 14 16 12 14 14 15 18 19 21 23 25 29 32 32 31 30 30 29 28 27
12 14 13 10 10 10 10 11 12 14 15 9 7 10 13 14 17 15 16 22 13 12 14 13 14 15 17 19 21 23 27 29 31 32 32 30 29 28
14 14 13 12 10 10 10 11 12 13 16 15 11 11 12 13 13 11 14 12 9 9 12 13 13 13 14 15 16 19 22 26 29 31 33 34 32 30
14 12 11 10 11 10 10 11 11 12 14 17 12 9 11 10 10 11 12 10 7 8 10 12 13 14 14 14 15 16 18 23 27 30 33 34 33 32
10 9 10 11 11 10 11 10 9 10 10 12 11 8 7 7 8 10 12 10 8 6 7 10 13 13 14 14 15 16 17 21 26 30 31 33 34 34
8 9 10 11 13 13 10 11 11 8 7 8 9 7 6 6 5 7 7 7 6 3 4 5 10 13 14 15 16 16 17 19 23 26 28 32 36 37
10 11 11 16 22 18 13 13 13 10 7 6 5 5 4 3 3 3 6 6 5 3 3 3 5 5 7 11 15 17 18 19 21 23 28 32 35 36
12 12 12 13 20 24 25 23 21 16 13 9 6 5 4 3 2 2 4 5 4 3 4 3 3 4 5 5 12 18 19 20 22 27 32 34 35 36
13 13 14 16 16 12 19 22 21 24 22 13 10 9 7 7 6 3 3 4 4 2 3 3 3 3 3 5 15 19 21 24 29 34 37 38 39 39
13 14 13 15 17 17 14 14 14 15 18 13 11 11 11 9 6 5 3 4 5 3 1 3 3 3 4 5 16 22 27 32 36 40 42 43 43 41
14 16 17 14 26 26 18 16 15 15 19 23 21 19 20 19 14 4 2 3 3 1 2 3 4 5 5 6 13 29 34 39 41 44 45 44 43 39
12 14 21 23 26 27 17 16 17 15 16 16 17 18 15 15 18 9 5 2 1 2 1 2 5 5 5 6 10 15 25 35 41 43 43 42 39 29
11 11 14 25 26 27 22 16 20 16 13 13 12 13 13 12 12 11 8 3 1 0 1 1 4 4 7 6 7 9 14 16 23 30 34 35 33 28
11 9 13 24 24 25 21 23 25 20 12 12 13 13 13 13 12 12 11 7 4 2 3 2 3 6 12 12 8 8 12 12 15 15 20 26 26 27
10 18 20 23 21 18 24 26 20 14 13 13 13 13 12 12 12 11 11 8 8 9 8 5 3 7 13 15 11 10 10 10 11 13 13 12 14 17
9 14 19 21 18 19 19 16 14 13 13 12 12 12 12 12 12 11 10 8 7 10 13 15 10 8 12 16 19 17 12 8 10 13 14 12 15 16
8 8 9 10 12 12 12 12 12 13 13 12 12 12 13 13 12 12 12 10 9 8 10 12 17 17 16 14 16 14 15 16 13 13 14 13 10 13
9 6 8 9 10 11 11 11 11 12 12 12 12 12 12 13 13 12 11 12 12 11 9 7 10 14 14 17 17 13 15 15 13 11 12 14 10 8
5 5 5 6 6 7 7 7 8 9 9 9 11 11 11 11 12 12 12 12 12 12 12 10 7 10 16 11 11 15 12 14 14 11 9 8 9 7
3 3 4 5 5 5 6 6 6 7 7 8 9 10 10 11 11 12 12 13 12 12 13 14 13 10 10 10 7 9 15 11 12 12 10 10 8 10
4 4 4 4 4 4 5 5 5 6 6 6 7 8 9 9 10 11 11 16 14 13 14 12 12 14 10 10 12 10 12 17 13 8 8 7 5 4
4 4 4 4 4 4 4 4 5 5 6 6 6 6 7 7 8 10 10 10 11 11 12 10 11 12 12 13 15 13 11 10 15 17 13 8 4 4
5 5 4 4 4 3 3 3 4 4 4 4 5 5 5 5 5 7 8 9 9 10 10 10 11 12 13 13 13 12 12 10 9 9 10 14 12 11
Wind_Direction
298 297 292 287 286 283 279 276 280 288 293 290 287 302 334 326 326 329 325 311 251 207 199 201 204 205 206 209 207 201 195 191 188 186 186 187 186 183
298 297 294 289 287 284 279 273 266 268 275 278 286 305 309 305 310 315 314 312 279 210 188 186 190 194 198 202 204 202 198 192 188 186 186 186 183 179
301 298 297 296 295 291 286 277 269 261 266 275 275 279 281 289 297 302 305 304 286 226 192 186 187 188 188 190 195 197 195 190 187 186 187 185 181 175
301 304 309 313 310 305 299 286 274 265 265 271 272 267 266 272 281 290 294 295 281 244 205 190 189 190 190 189 192 195 193 188 185 187 188 185 180 171
312 324 330 336 334 327 320 318 300 277 264 266 267 257 256 258 268 276 282 288 277 249 213 196 191 191 192 192 193 194 195 191 187 188 186 180 173 166
350 349 351 1 354 346 344 344 334 314 283 272 266 257 250 245 239 255 273 274 267 248 203 185 188 191 193 194 195 195 195 194 191 187 181 171 164 161
5 357 358 13 11 7 8 5 359 358 348 325 298 272 259 260 230 218 252 269 265 227 188 181 174 178 187 196 195 193 192 192 187 177 166 159 155 152
7 0 360 8 17 11 12 15 14 14 13 5 353 342 333 320 306 244 236 255 248 216 171 163 158 170 175 180 187 187 185 181 172 160 151 145 140 138
8 5 7 5 21 13 8 13 13 14 19 15 4 356 348 348 329 281 231 243 254 243 151 145 132 143 135 159 170 170 166 158 149 141 136 131 129 127
5 4 9 2 14 21 8 9 12 10 10 12 6 357 355 354 329 294 280 266 265 275 150 133 123 112 102 125 149 147 142 137 133 129 127 125 123 121
6 6 11 10 13 20 13 8 10 7 5 8 10 8 6 5 5 340 297 225 217 205 30 119 121 99 85 98 123 129 129 128 126 125 123 121 119 117
7 5 9 15 14 19 18 10 12 4 358 359 2 2 1 360 7 7 342 288 214 157 17 116 132 117 86 71 104 117 120 121 122 122 122 121 119 117
9 5 6 14 15 18 20 16 14 10 359 359 359 360 1 1 358 353 347 328 303 93 344 101 125 112 115 109 81 96 113 117 116 117 118 120 121 121
5 4 10 17 16 16 19 17 15 13 6 4 5 5 2 358 352 346 345 355 17 34 1 54 128 148 133 127 113 97 94 101 111 112 114 115 113 115
10 16 17 18 16 13 15 17 15 11 9 7 4 360 354 351 354 354 355 1 28 35 29 34 105 144 138 133 128 125 107 92 100 109 109 109 112 115
14 10 16 17 18 14 14 14 13 13 13 7 359 355 355 1 9 9 9 8 32 37 34 43 55 100 123 126 130 130 120 116 116 109 105 98 95 98
13 8 10 12 13 11 11 12 12 12 12 7 5 3 4 7 12 14 21 33 48 48 51 60 66 69 70 103 120 119 118 117 119 118 111 102 90 98
18 6 9 10 10 8 7 7 9 12 10 9 10 9 9 9 12 17 25 35 44 43 42 52 96 97 82 54 50 107 114 116 114 110 114 113 103 92
14 350 351 353 354 356 357 358 1 1 4 10 13 12 13 15 17 21 25 32 39 42 39 35 43 112 112 97 42 49 102 114 112 104 98 108 117 115
338 330 331 336 341 344 348 351 351 357 3 8 12 14 17 20 24 24 28 33 37 43 46 45 47 64 95 107 101 63 65 90 106 105 103 100 97 103
309 311 313 321 329 335 339 344 348 353 358 1 9 13 17 24 29 29 33 37 41 44 48 44 43 58 78 89 93 80 64 70 84 98 110 109 103 96
285 287 292 299 311 319 326 337 346 352 356 1 2 7 13 23 29 31 34 39 42 46 51 48 47 59 72 89 95 94 88 79 82 83 78 84 114 131
276 270 270 277 283 288 296 314 332 340 348 353 359 3 9 19 23 31 35 40 45 48 53 57 60 65 73 82 91 94 92 90 87 80 67 69 81 90
Height
1420 1417 1414 1412 1410 1408 1406 1404 1402 1395 1387 1385 1387 1389 1391 1394 1397 1400 1404 1409 1415 1420 1425 1430 1435 1441 1447 1454 1460 1468 1475 1481 1488 1495 1501 1508 1514 1520
1416 1413 1410 1407 1405 1402 1400 1398 1397 1394 1388 1381 1384 1384 1386 1388 1391 1394 1398 1403 1408 1414 1419 1424 1429 1434 1441 1447 1454 1461 1468 1475 1482 1489 1495 1502 1509 1515
1412 1409 1406 1404 1400 1397 1394 1392 1390 1388 1383 1379 1381 1381 1381 1382 1386 1389 1392 1397 1402 1408 1413 1418 1423 1428 1434 1441 1447 1454 1462 1468 1475 1482 1489 1497 1503 1509
1409 1407 1404 1400 1397 1393 1389 1385 1383 1381 1379 1376 1377 1378 1378 1379 1380 1383 1387 1391 1397 1403 1407 1412 1417 1423 1428 1435 1442 1449 1456 1463 1470 1476 1482 1490 1497 1504
1408 1405 1402 1398 1394 1389 1384 1380 1376 1374 1373 1372 1372 1375 1376 1376 1377 1379 1382 1386 1391 1397 1402 1407 1412 1417 1423 1429 1436 1443 1450 1457 1464 1472 1478 1484 1490 1497
1408 1405 1402 1398 1393 1387 1382 1376 1371 1368 1367 1368 1368 1370 1372 1372 1373 1375 1378 1383 1387 1393 1398 1403 1408 1413 1418 1424 1430 1437 1444 1452 1459 1466 1473 1480 1486 1492
1409 1406 1402 1399 1393 1387 1381 1375 1369 1366 1364 1364 1365 1366 1368 1369 1370 1372 1376 1380 1383 1388 1394 1399 1403 1407 1412 1418 1424 1431 1438 1446 1453 1461 1468 1475 1482 1488
1411 1407 1403 1399 1393 1386 1380 1374 1370 1366 1364 1362 1363 1364 1366 1367 1368 1371 1374 1377 1381 1385 1389 1394 1399 1403 1408 1413 1419 1426 1433 1440 1447 1455 1463 1470 1477 1484
1414 1410 1405 1401 1394 1387 1380 1375 1370 1367 1365 1363 1363 1363 1364 1365 1366 1368 1371 1374 1377 1381 1386 1390 1395 1399 1404 1409 1415 1421 1428 1435 1442 1450 1458 1466 1473 1480
1417 1413 1409 1403 1398 1390 1383 1377 1372 1368 1365 1363 1362 1362 1362 1363 1363 1365 1367 1372 1375 1378 1382 1386 1391 1397 1402 1407 1412 1418 1424 1431 1438 1446 1453 1461 1468 1476
1419 1415 1412 1406 1401 1393 1386 1380 1375 1371 1367 1365 1362 1361 1360 1360 1361 1363 1365 1369 1372 1374 1378 1383 1389 1395 1400 1405 1411 1417 1423 1429 1437 1443 1450 1457 1465 1473
1422 1417 1414 1409 1404 1397 1389 1384 1378 1374 1369 1365 1362 1360 1358 1358 1358 1359 1361 1365 1368 1371 1375 1381 1386 1391 1398 1405 1410 1417 1423 1429 1435 1442 1449 1455 1462 1470
1425 1420 1416 1412 1406 1400 1394 1389 1385 1379 1373 1368 1364 1360 1357 1356 1356 1356 1358 1361 1365 1369 1372 1377 1382 1386 1391 1403 1410 1416 1421 1427 1434 1442 1449 1457 1465 1472
1429 1425 1420 1414 1409 1403 1398 1393 1388 1382 1377 1371 1367 1362 1358 1356 1355 1356 1357 1359 1362 1366 1370 1374 1378 1381 1387 1398 1408 1416 1422 1428 1434 1442 1451 1460 1468 1477
1432 1429 1423 1417 1411 1406 1401 1396 1391 1385 1381 1376 1371 1367 1363 1360 1357 1357 1357 1359 1361 1364 1368 1372 1377 1381 1385 1391 1403 1414 1422 1431 1437 1444 1453 1461 1469 1477
1436 1431 1426 1420 1415 1410 1405 1400 1395 1391 1387 1383 1378 1374 1369 1364 1360 1358 1358 1359 1361 1364 1367 1371 1376 1380 1384 1391 1400 1413 1422 1430 1440 1447 1454 1462 1471 1479
1439 1434 1428 1423 1418 1413 1409 1405 1401 1397 1392 1388 1384 1379 1374 1370 1365 1362 1360 1360 1361 1364 1368 1372 1375 1378 1385 1392 1400 1411 1421 1430 1440 1448 1456 1463 1471 1479
1441 1436 1432 1427 1423 1419 1414 1410 1406 1402 1398 1394 1390 1386 1381 1377 1373 1370 1366 1364 1364 1366 1369 1374 1378 1381 1386 1395 1404 1411 1420 1429 1440 1449 1457 1463 1470 1477
1442 1439 1435 1432 1428 1424 1420 1416 1412 1408 1405 1401 1397 1393 1389 1385 1381 1378 1375 1372 1371 1371 1374 1377 1382 1385 1387 1397 1409 1416 1421 1429 1439 1449 1458 1465 1470 1476
1443 1440 1437 1434 1431 1428 1424 1420 1417 1414 1410 1406 1403 1399 1396 1393 1389 1386 1383 1382 1380 1379 1380 1382 1385 1389 1392 1398 1408 1418 1426 1432 1440 1448 1456 1463 1469 1475
1442 1440 1438 1435 1433 1430 1427 1424 1421 1418 1415 1412 1409 1406 1403 1400 1397 1394 1392 1391 1389 1388 1387 1389 1391 1395 1398 1403 1409 1419 1429 1437 1443 1449 1456 1462 1468 1473
1441 1439 1437 1435 1433 1432 1430 1427 1425 1422 1419 1416 1414 1411 1409 1407 1405 1403 1401 1399 1398 1397 1398 1399 1401 1404 1406 1408 1413 1422 1430 1438 1444 1450 1456 1462 1465 1470
1439 1437 1435 1434 1433 1431 1430 1429 1427 1425 1423 1421 1418 1416 1414 1413 1411 1410 1409 1408 1407 1406 1406 1407 1408 1410 1413 1417 1421 1427 1433 1439 1445 1451 1457 1461 1466 1470